Tracking 19575 objects as of 19-Feb-2019
HD Live streaming from Space Station
objects crossing your sky now

IRIDIUM 42

Track IRIDIUM 42 now!
10-day predictions
IRIDIUM 42 is classified as:


NORAD ID: 25077
Int'l Code: 1997-077A
Perigee: 781.8 km
Apogee: 785.7 km
Inclination: 86.4 °
Period: 100.4 minutes
Semi major axis: 7154 km
RCS: 3.3675 m2 (large)
Launch date: December 8, 1997
Source: United States (US)
Launch site: Taiyaun Space Center, China (TSC)
aabbcc
Your satellite tracking list
Your tracking list is empty




NASA's NSSDC Master Catalog

Two Line Element Set (TLE):
1 25077U 97077A   19050.34709049  .00000091  00000-0  25288-4 0  9991
2 25077  86.3979 126.0013 0002746  95.6081 264.5429 14.34542134109942
Source of the keplerian elements: AFSPC